Погода в Черёмушке

Россия / Республика Хакасия     54°27′38″N   91°00′04″E
темп.,
°C
ветер,
м/с
пор.,
м/с
влажн.,
%
обл.,
%
осадки,
мм/ч
давл.,
гПа
погр.,
м
7 мая, пт
пт701:00+11вюв2268100 0.0 100716
04:00+10юв2271100 0.0 100625
07:00+11вюв2373100 0.0 1006106
10:00+15юв346096 0.0 1005292
13:00+22з51043100 0.4 10041945
16:00+20зсз81346100 0.1 10052054
19:00+16сз81347100 0.1 10091564
22:00+12зсз71350100 0.0 1013796
8 мая, сб
сб801:00+10з411587 0.0 1015318
04:00+9з4105642 0.0 1016282
07:00+10з495756 0.0 1017535
10:00+12зсз694449 0.0 10172033
13:00+15зсз7103146 0.0 10152314
16:00+16зсз8113688 0.0 10142215
19:00+15з7134499 0.0 10141769
22:00+13з6125897 0.3 10141014
9 мая, вс
вс901:00+11зсз5117292 1.2 1014779
04:00+9сз488115 0.8 1014289
07:00+7с4777100 0.9 1015836
10:00+6сз9135962 0.0 10171142
13:00+10ссз810385 0.0 10171778
16:00+11ссз793664 0.0 10182150
19:00+9с67465 0.0 10201532
22:00+5ссв22660 0.0 102232
10 мая, пн
пн1001:00+4юв117499 0.0 102210
04:00+3вюв117870 0.0 102210
07:00+4в116913 0.0 1021163
10:00+8вюв345359 0.0 1019808
13:00+11юв45415 0.0 10161326
16:00+14юв353331 0.0 10131676
19:00+12с3442100 0.0 1012882
22:00+9св5115999 0.0 1011428
11 мая, вт
вт1101:00+7ссз236855 0.0 101054
04:00+4сз2384100 0.0 101064
07:00+5сз347719 0.0 1010373
10:00+10ссз55542 0.0 1010935
13:00+14с554250 0.0 10091632
16:00+15ссв6637100 0.0 10092225
19:00+13св575265 0.6 10111225
22:00+9ссв486896 0.5 1014341